When you browse on this site, cookies collect data to enhance your experience and personalize the content and advertising you see.
Visit our Privacy Policy to learn more. By continuing to use the site, you agree to this use of cookies and data.

Stündliche Wetter Rosas

Heute, 12 August, Mittwoch

Zeit Temperatur Niederschläge Wind Luftdruck Luftfeuchtigkeit
00:00 +16°C° 0 mm 1 m/S 616 mmHg 90%
01:00 +16°C° 0 mm 1 m/S 616 mmHg 90%
02:00 +16°C° 0 mm 1 m/S 616 mmHg 89%
03:00 +16°C° 0 mm 1 m/S 616 mmHg 89%
04:00 +16°C° 0 mm 1 m/S 615 mmHg 89%
05:00 +16°C° 0 mm 1 m/S 616 mmHg 87%
06:00 +16°C° 0 mm 1 m/S 616 mmHg 85%
07:00 +18°C° 0 mm 1 m/S 616 mmHg 83%
08:00 +20°C° 0 mm 1 m/S 617 mmHg 75%
09:00 +23°C° 0 mm 1 m/S 618 mmHg 67%
10:00 +25°C° 0 mm 1 m/S 619 mmHg 59%
11:00 +26°C° 0 mm 1 m/S 619 mmHg 54%
12:00 +27°C° 0 mm 1 m/S 619 mmHg 50%
13:00 +29°C° 0 mm 1 m/S 619 mmHg 45%
14:00 +28°C° 0.3 mm 2 m/S 618 mmHg 51%
15:00 +27°C° 0.3 mm 2 m/S 617 mmHg 58%
16:00 +25°C° 0.3 mm 2 m/S 616 mmHg 64%
17:00 +23°C° 1.6 mm 2 m/S 616 mmHg 73%
18:00 +21°C° 1.6 mm 1 m/S 616 mmHg 83%
19:00 +19°C° 1.6 mm 1 m/S 615 mmHg 93%
20:00 +19°C° 1 mm 1 m/S 616 mmHg 92%
21:00 +18°C° 1 mm 1 m/S 616 mmHg 92%
22:00 +18°C° 1 mm 1 m/S 616 mmHg 92%
23:00 +16°C° 0.3 mm 1 m/S 616 mmHg 92%

Morgen, 13 August, Donnerstag

Zeit Temperatur Niederschläge Wind Luftdruck Luftfeuchtigkeit
00:00 +16°C° 0.3 mm 1 m/S 616 mmHg 91%
01:00 +16°C° 0.3 mm 1 m/S 616 mmHg 91%
02:00 +16°C° 0.2 mm 1 m/S 616 mmHg 91%
03:00 +16°C° 0.2 mm 1 m/S 615 mmHg 90%
04:00 +15°C° 0.2 mm 1 m/S 615 mmHg 90%
05:00 +16°C° 0 mm 1 m/S 615 mmHg 89%
06:00 +16°C° 0 mm 1 m/S 616 mmHg 88%
07:00 +18°C° 0 mm 1 m/S 616 mmHg 86%
08:00 +20°C° 0 mm 1 m/S 617 mmHg 78%
09:00 +23°C° 0 mm 1 m/S 618 mmHg 70%
10:00 +25°C° 0 mm 1 m/S 619 mmHg 62%
11:00 +25°C° 0.6 mm 1 m/S 619 mmHg 63%
12:00 +26°C° 0.6 mm 1 m/S 618 mmHg 64%
13:00 +26°C° 0.6 mm 1 m/S 618 mmHg 66%
14:00 +25°C° 1.9 mm 1 m/S 617 mmHg 71%
15:00 +24°C° 1.9 mm 1 m/S 616 mmHg 77%
16:00 +23°C° 1.9 mm 1 m/S 616 mmHg 82%
17:00 +22°C° 1.8 mm 1 m/S 616 mmHg 86%
18:00 +21°C° 1.8 mm 1 m/S 616 mmHg 90%
19:00 +19°C° 1.8 mm 1 m/S 615 mmHg 94%
20:00 +19°C° 1.1 mm 1 m/S 616 mmHg 94%
21:00 +17°C° 1.1 mm 0 m/S 616 mmHg 94%
22:00 +17°C° 1.1 mm 0 m/S 617 mmHg 95%
23:00 +16°C° 1 mm 0 m/S 616 mmHg 95%

übermorgen, 14 August, Freitag

Zeit Temperatur Niederschläge Wind Luftdruck Luftfeuchtigkeit
00:00 +16°C° 1 mm 0 m/S 616 mmHg 95%
01:00 +16°C° 1 mm 0 m/S 616 mmHg 96%
02:00 +16°C° 0.8 mm 0 m/S 615 mmHg 96%
03:00 +16°C° 0.8 mm 0 m/S 615 mmHg 96%
04:00 +16°C° 0.8 mm 0 m/S 615 mmHg 97%
05:00 +16°C° 0.4 mm 0 m/S 615 mmHg 96%
06:00 +16°C° 0.4 mm 0 m/S 616 mmHg 96%
07:00 +16°C° 0.4 mm 0 m/S 616 mmHg 96%
08:00 +17°C° 0.2 mm 0 m/S 617 mmHg 92%
09:00 +21°C° 0.2 mm 1 m/S 617 mmHg 87%
10:00 +22°C° 0.2 mm 1 m/S 618 mmHg 83%
11:00 +22°C° 1.2 mm 1 m/S 618 mmHg 82%
12:00 +22°C° 1.2 mm 1 m/S 618 mmHg 82%
13:00 +22°C° 1.2 mm 1 m/S 617 mmHg 81%
14:00 +22°C° 1.1 mm 1 m/S 616 mmHg 84%
15:00 +22°C° 1.1 mm 1 m/S 616 mmHg 86%
16:00 +21°C° 1.1 mm 1 m/S 615 mmHg 88%
17:00 +20°C° 0.5 mm 1 m/S 615 mmHg 90%
18:00 +19°C° 0.5 mm 1 m/S 615 mmHg 93%
19:00 +18°C° 0.5 mm 1 m/S 615 mmHg 95%
20:00 +18°C° 0.7 mm 1 m/S 616 mmHg 95%
21:00 +18°C° 0.7 mm 1 m/S 616 mmHg 95%
22:00 +18°C° 0.7 mm 1 m/S 617 mmHg 95%
23:00 +16°C° 0.6 mm 0 m/S 616 mmHg 95%

15 August, Samstag

Zeit Temperatur Niederschläge Wind Luftdruck Luftfeuchtigkeit
00:00 +15°C° 0.6 mm 0 m/S 616 mmHg 96%
01:00 +15°C° 0.6 mm 0 m/S 616 mmHg 96%
02:00 +15°C° 0 mm 0 m/S 615 mmHg 96%
03:00 +15°C° 0 mm 0 m/S 615 mmHg 95%
04:00 +16°C° 0 mm 1 m/S 615 mmHg 95%
05:00 +16°C° 0 mm 1 m/S 615 mmHg 94%
06:00 +15°C° 0 mm 0 m/S 616 mmHg 93%
07:00 +16°C° 0 mm 0 m/S 616 mmHg 92%
08:00 +19°C° 0.1 mm 1 m/S 617 mmHg 86%
09:00 +21°C° 0.1 mm 1 m/S 618 mmHg 79%
10:00 +23°C° 0.1 mm 1 m/S 619 mmHg 72%
11:00 +24°C° 0.6 mm 1 m/S 619 mmHg 70%
12:00 +25°C° 0.6 mm 1 m/S 618 mmHg 68%
13:00 +25°C° 0.6 mm 1 m/S 618 mmHg 67%
14:00 +24°C° 1.1 mm 1 m/S 617 mmHg 71%
15:00 +24°C° 1.1 mm 1 m/S 617 mmHg 75%
16:00 +23°C° 1.1 mm 1 m/S 616 mmHg 79%
17:00 +21°C° 1.1 mm 1 m/S 616 mmHg 84%
18:00 +20°C° 1.1 mm 1 m/S 616 mmHg 89%
19:00 +18°C° 1.1 mm 1 m/S 616 mmHg 94%
20:00 +18°C° 0.4 mm 1 m/S 616 mmHg 93%
21:00 +16°C° 0.4 mm 1 m/S 616 mmHg 93%
22:00 +16°C° 0.4 mm 1 m/S 617 mmHg 92%
23:00 +16°C° 0.5 mm 1 m/S 616 mmHg 92%

16 August, Sonntag

Zeit Temperatur Niederschläge Wind Luftdruck Luftfeuchtigkeit
00:00 +16°C° 0.5 mm 1 m/S 616 mmHg 92%
01:00 +16°C° 0.5 mm 1 m/S 616 mmHg 92%
02:00 +16°C° 0.3 mm 1 m/S 616 mmHg 93%
03:00 +15°C° 0.3 mm 0 m/S 616 mmHg 93%
04:00 +15°C° 0.3 mm 0 m/S 615 mmHg 94%
05:00 +15°C° 0 mm 0 m/S 616 mmHg 93%
06:00 +15°C° 0 mm 0 m/S 616 mmHg 93%
07:00 +16°C° 0 mm 1 m/S 616 mmHg 92%
08:00 +19°C° 0 mm 1 m/S 617 mmHg 86%
09:00 +21°C° 0 mm 1 m/S 618 mmHg 79%
10:00 +23°C° 0 mm 1 m/S 619 mmHg 72%
11:00 +23°C° 0.4 mm 1 m/S 619 mmHg 71%
12:00 +24°C° 0.4 mm 1 m/S 618 mmHg 70%
13:00 +24°C° 0.4 mm 1 m/S 618 mmHg 69%
14:00 +23°C° 1.2 mm 1 m/S 617 mmHg 74%
15:00 +23°C° 1.2 mm 1 m/S 617 mmHg 78%
16:00 +22°C° 1.2 mm 1 m/S 616 mmHg 83%
17:00 +21°C° 1.1 mm 1 m/S 616 mmHg 86%
18:00 +19°C° 1.1 mm 1 m/S 616 mmHg 90%
19:00 +18°C° 1.1 mm 1 m/S 616 mmHg 94%
20:00 +18°C° 0.6 mm 1 m/S 616 mmHg 93%
21:00 +16°C° 0.6 mm 1 m/S 616 mmHg 93%
22:00 +16°C° 0.6 mm 1 m/S 617 mmHg 93%
23:00 +16°C° 0.4 mm 1 m/S 617 mmHg 93%

17 August, Montag

Zeit Temperatur Niederschläge Wind Luftdruck Luftfeuchtigkeit
00:00 +16°C° 0.4 mm 1 m/S 616 mmHg 93%
01:00 +16°C° 0.4 mm 1 m/S 616 mmHg 93%
02:00 +15°C° 0.1 mm 0 m/S 616 mmHg 93%
03:00 +15°C° 0.1 mm 0 m/S 616 mmHg 93%
04:00 +14°C° 0.1 mm 0 m/S 615 mmHg 94%
05:00 +15°C° 0 mm 0 m/S 616 mmHg 93%
06:00 +16°C° 0 mm 1 m/S 616 mmHg 92%
07:00 +16°C° 0 mm 1 m/S 617 mmHg 91%
08:00 +19°C° 0.1 mm 1 m/S 617 mmHg 86%
09:00 +21°C° 0.1 mm 1 m/S 618 mmHg 80%
10:00 +22°C° 0.1 mm 1 m/S 619 mmHg 75%
11:00 +23°C° 0.7 mm 1 m/S 619 mmHg 74%
12:00 +23°C° 0.7 mm 1 m/S 618 mmHg 73%
13:00 +24°C° 0.7 mm 1 m/S 618 mmHg 73%
14:00 +23°C° 1.3 mm 1 m/S 617 mmHg 76%
15:00 +22°C° 1.3 mm 1 m/S 617 mmHg 80%
16:00 +22°C° 1.3 mm 1 m/S 616 mmHg 83%
17:00 +20°C° 1 mm 1 m/S 616 mmHg 87%
18:00 +19°C° 1 mm 1 m/S 616 mmHg 90%
19:00 +18°C° 1 mm 1 m/S 616 mmHg 94%
20:00 +16°C° 0.4 mm 1 m/S 616 mmHg 94%
21:00 +16°C° 0.4 mm 1 m/S 616 mmHg 93%
22:00 +15°C° 0.4 mm 1 m/S 617 mmHg 93%
23:00 +14°C° 0.2 mm 0 m/S 616 mmHg 93%
Mehr zeigen